AO-07 1 07530U 74089B 26167.67608837 -.00000041 00000-0 30578-4 0 9993 2 07530 101.9900 180.9174 0012566 131.0726 344.0336 12.53698119360453 UO-11 1 14781U 84021B 26167.68441343 .00000930 00000-0 10024-3 0 9993 2 14781 97.8057 133.2646 0007608 174.0153 186.1158 14.90782155257057 LO-19 1 20442U 90005G 26167.55404471 .00000088 00000-0 47981-4 0 9997 2 20442 98.8851 189.3422 0011081 203.0347 157.0341 14.34123035902303 AO-27 1 22825U 93061C 26167.72018012 .00000085 00000-0 49163-4 0 9991 2 22825 98.6881 235.1339 0009538 100.9121 259.3135 14.30942178706938 FO-29 1 24278U 96046B 26167.86751167 .00000005 00000-0 37591-4 0 9995 2 24278 98.5239 16.7835 0350901 97.2592 266.8568 13.53274370473126 GO-32 1 25397U 98043D 26167.85366090 .00000033 00000-0 34602-4 0 9994 2 25397 99.0067 160.6038 0001052 163.3790 196.7423 14.24428316451287 ISS 1 25544U 98067A 26167.86697329 .00007968 00000-0 15124-3 0 9998 2 25544 51.6339 301.6783 0004749 194.3570 165.7284 15.49265361571705 NO-44 1 26931U 01043C 26167.60055176 .00000075 00000-0 58858-4 0 9991 2 26931 67.0506 245.7892 0006082 264.6522 95.3886 14.31955906290369 SO-50 1 27607U 02058C 26167.61583826 .00000824 00000-0 11462-3 0 9999 2 27607 64.5510 130.7531 0075275 262.5800 96.6748 14.83045885264372 CO-55 1 27844U 03031E 26167.82643209 .00000230 00000-0 11849-3 0 9999 2 27844 98.6736 176.3898 0009511 179.0123 181.1076 14.24335514191622 RS-22 1 27939U 03042A 26167.88129492 .00000699 00000-0 11599-3 0 9996 2 27939 98.3461 352.2313 0009933 270.9686 196.4351 14.73466646215503 CO-65 1 32785U 08021C 26167.85103046 .00003795 00000-0 24109-3 0 9998 2 32785 97.8272 149.2625 0009804 40.0986 320.0964 15.09448624985143 CO-66 1 32791U 08021J 26167.74386277 .00015231 00000-0 48396-3 0 9994 2 32791 97.7513 165.6203 0001104 5.3792 354.7461 15.32737938987227 RS-30 1 32953U 08025A 26167.85702833 -.00000037 00000-0 -33519-3 0 9991 2 32953 82.5037 355.6457 0018860 314.6031 45.3509 12.43179216819656 SRMSAT 1 37841U 11058D 26167.39100053 .00000354 00000-0 48037-4 0 9999 2 37841 19.9721 64.2860 0011805 194.8507 321.4366 14.11575402757700 ZACUBE-1 1 39417U 13066B 26167.87404306 .00002572 00000-0 20205-3 0 9992 2 39417 97.8081 130.2093 0040770 248.7630 110.9237 15.01187648680687 Delfi-N3xt 1 39428U 13066N 26167.84328909 .00004076 00000-0 35799-3 0 9990 2 39428 97.8337 88.1552 0073681 206.8148 152.9256 14.95075148674571 GOMX-1 1 39430U 13066Q 26167.84549977 .00001524 00000-0 23330-3 0 9996 2 39430 97.6477 8.3298 0130189 78.6172 282.9627 14.69459321669869 LO-74 1 39440U 13066AA 26167.86222787 .00003954 00000-0 36654-3 0 9998 2 39440 97.8908 116.8389 0058408 30.1194 330.3363 14.93759610676940 AO-73 1 39444U 13066AE 26167.85767792 .00005558 00000-0 34605-3 0 9997 2 39444 97.8277 139.2966 0035603 202.0284 157.9416 15.09487689679616 DTUSAT-2 1 40030U 14033W 26167.51138486 .00005343 00000-0 28992-3 0 9994 2 40030 98.0860 165.1955 0006562 227.8429 132.2245 15.15011163652584 LILACSAT-2 1 40908U 15049K 26167.88527069 .00014899 00000-0 25410-3 0 9993 2 40908 97.4641 204.7154 0005498 246.4502 113.6173 15.51436882595707 Horyu-4 1 41340U 16012D 26166.43547623 .00392649 54783-4 97992-3 0 9990 2 41340 30.9849 91.8834 0005149 261.3375 98.6703 15.94546005570538 Lapan A3 1 41603U 16040E 26167.86480894 .00002856 00000-0 91512-4 0 9997 2 41603 97.1487 164.0210 0010927 26.9179 333.2628 15.33102925554764 CAS-2T 1 41847U 16066G 26167.75579753 .00001503 00000-0 21759-3 0 9999 2 41847 98.3822 243.4970 0342784 130.7831 232.3645 14.44693320504738 TechnoSat 1 42829U 17042E 26167.38491289 .00003441 00000-0 24603-3 0 9995 2 42829 97.4282 325.0727 0018897 96.7321 263.6058 15.04956757486586 AO-91 1 43017U 17073E 26167.87725140 .00006435 00000-0 28237-3 0 9992 2 43017 97.4700 35.0982 0149597 330.3447 28.9362 15.12714806465347 S-Net D 1 43186U 18014G 26167.80212424 .00004256 00000-0 22071-3 0 9993 2 43186 97.5365 72.5955 0008988 31.7411 328.4362 15.16670775458709 S-Net B 1 43187U 18014H 26167.68161610 .00004473 00000-0 23196-3 0 9990 2 43187 97.5370 72.4624 0009465 26.9025 333.2696 15.16639326458684 S-Net A 1 43188U 18014J 26167.80100387 .00004229 00000-0 21925-3 0 9996 2 43188 97.5381 72.7895 0009365 27.3118 332.8605 15.16678733458700 S-Net C 1 43189U 18014K 26167.81744429 .00004506 00000-0 23361-3 0 9993 2 43189 97.5398 72.8806 0010497 18.9293 341.2328 15.16632493457258 Ten-Koh 1 43677U 18084G 26167.52449489 .00001660 00000-0 12839-3 0 9994 2 43677 98.0772 359.8603 0011495 116.0516 244.1892 15.02941403416062 PO-101 1 43678U 18084H 26167.83643615 .00002300 00000-0 18773-3 0 9991 2 43678 98.1175 4.0296 0012455 171.1877 188.9567 15.00451602416167 QO-100 1 43700U 18090A 26167.76128993 .00000141 00000-0 00000 0 0 9994 2 43700 0.0175 13.0563 0001609 111.1044 80.7103 1.00270422 27674 MinXSS-2 1 43758U 18099A 26167.70365159 .00028753 00000-0 57221-3 0 9997 2 43758 97.4538 243.9738 0006573 256.6058 103.4459 15.46870050414050 AO-95 1 43770U 18099N 26167.68443100 .00008509 00000-0 32646-3 0 9992 2 43770 97.4378 227.9322 0008029 359.9269 0.1967 15.26702664413145 SNUSat 2 1 43782U 18099AA 26167.67578694 .00006429 00000-0 28575-3 0 9996 2 43782 97.4054 221.0673 0008639 300.7866 59.2520 15.21832090412957 SnugLite 1 43784U 18099AC 26167.68502187 .00009396 00000-0 35537-3 0 9995 2 43784 97.3864 221.9698 0001225 295.4652 64.6460 15.27170221413243 ITASat 1 1 43786U 18099AE 26167.69231126 .00005837 00000-0 28121-3 0 9997 2 43786 97.4024 219.2135 0012152 1.9743 358.1538 15.19052097412834 EAGLET 1 1 43790U 18099AJ 26167.85440252 .00002975 00000-0 17226-3 0 9996 2 43790 97.4229 217.5319 0010697 355.8088 4.3052 15.12938396412284 ESEO 1 43792U 18099AL 26167.84772580 .00001838 00000-0 13617-3 0 9996 2 43792 97.3974 205.2502 0011350 341.1414 18.9391 15.04247170411750 JO-97 1 43803U 18099AX 26167.70427300 .00013619 00000-0 42078-3 0 9994 2 43803 97.4127 230.5368 0004320 264.4420 95.6330 15.33640706413557 Suomi 100 1 43804U 18099AY 26167.68250233 .00009519 00000-0 34649-3 0 9990 2 43804 97.4182 228.0775 0008334 281.2110 78.8193 15.28405633413344 ISAT 1 43879U 18111D 26167.33112204 .00082852 00000-0 83408-3 0 9992 2 43879 97.5885 102.4869 0000839 128.9193 231.2141 15.65156553411033 UWE-4 1 43880U 18111E 26167.76208191 .00028639 00000-0 58526-3 0 9998 2 43880 97.5856 96.1335 0005598 344.6304 15.4774 15.46104351410714 Sparrow 1 43881U 18111F 26167.74973433 .00137653 00000-0 94302-3 0 9994 2 43881 97.6131 108.5478 0004460 113.4197 246.7537 15.74323695411304 Prox-1 1 44339U 19036A 26167.18701798 .00010486 00000-0 10169-2 0 9993 2 44339 23.9937 120.9336 0005681 25.8982 334.1802 14.90587417373321 Taurus 1 1 44530U 19059C 26167.83494125 .00004358 00000-0 70125-3 0 9996 2 44530 98.6411 332.6407 0007441 317.9559 42.1074 14.72093757358590 TO-108 1 44881U 19093C 26167.84281351 .00001022 00000-0 12133-3 0 9999 2 44881 97.7538 240.0832 0015145 87.8796 272.4154 14.86521095351360 RS-44 1 44909U 19096E 26167.84883110 .00000016 00000-0 15372-4 0 9995 2 44909 82.5219 339.9298 0218156 144.9538 216.6144 12.79748867302306 SALSAT 1 46495U 20068K 26167.75305926 .00006424 00000-0 22536-3 0 9990 2 46495 97.8846 170.7912 0008036 309.8779 50.1753 15.29794360315296 CSS (TIANHE-1) 1 48274U 21035A 26167.84906358 .00020239 00000-0 23909-3 0 9993 2 48274 41.4698 324.0596 0007460 74.3419 285.8242 15.60797895293117 CUTE 1 49263U 21088D 26167.74788288 .00136546 91656-5 39350-3 0 9997 2 49263 97.4163 266.9993 0007684 230.1431 129.9168 15.93060981262489 TeikyoSat 4 1 49396U 21102B 26167.65663378 .00001308 00000-0 85351-4 0 9991 2 49396 97.3671 197.1608 0010509 298.9842 61.0334 15.09506570252649 Z-Sat 1 49399U 21102E 26167.86845338 .00002556 00000-0 12772-3 0 9997 2 49399 97.3320 203.2011 0014866 245.9949 113.9730 15.18260260253393 KOSEN 1 1 49402U 21102H 26167.35519190 .00005881 00000-0 22536-3 0 9993 2 49402 97.3180 209.5285 0013099 203.4656 156.5987 15.26825516253897 HO-113 1 50466U 21131B 26167.84635360 .00000563 00000-0 18754-3 0 9998 2 50466 98.4987 260.2376 0005389 97.5245 262.6556 14.41357864235062 SNUGLITE 2 1 52899U 22065F 26167.62106104 .00000774 00000-0 15573-3 0 9992 2 52899 98.2201 312.4525 0008038 34.6467 325.5258 14.64346784210918 UmKA 1 (RS40S) 1 57172U 23091G 26167.83073451 .00005352 00000-0 24523-3 0 9994 2 57172 97.5049 226.5292 0014236 118.7578 241.5089 15.20815751163957 CubeBel-2 (EU11S) 1 57175U 23091K 26167.85665098 .00011219 00000-0 39842-3 0 9992 2 57175 97.5051 231.0704 0011274 115.6652 244.5753 15.29145153164256 RS-38S 1 57189U 23091Z 26167.82189095 .00014215 00000-0 40697-3 0 9991 2 57189 97.5093 237.2996 0008277 78.7954 281.4219 15.36016864164634 SONATE-2 1 59112U 24043Q 26167.68892774 .00032720 00000-0 42569-3 0 9997 2 59112 97.5532 318.0536 0007039 197.2999 162.8018 15.58684750127816 GRBBeta 1 60237U 24128C 26167.68909538 .00002596 00000-0 18568-3 0 9998 2 60237 61.9884 218.0139 0040716 134.5575 225.8855 15.06636880106193 Curium One 1 60242U 24128H 26167.57510954 .00004997 00000-0 29299-3 0 9992 2 60242 61.9767 207.9432 0039823 130.6909 229.7658 15.12504851106369 ROBUSTA-3A 1 60243U 24128J 26167.60567462 .00004187 00000-0 25309-3 0 9992 2 60243 61.9848 210.3011 0041447 127.8993 232.5862 15.11671493106339 CatSat 1 60246U 24125J 26167.49770833 .00049368 00000-0 63623-3 0 9998 2 60246 97.2079 19.9890 0022367 181.7412 178.3770 15.58572452107289 HYPERVIEW-1G (RS66S) 1 61772U 24199AP 26167.74509406 .00117914 00000-0 76208-3 0 9994 2 61772 97.2865 47.4421 0003695 219.9631 140.1363 15.75736016134601 AO-123 1 61781U 24199AY 26167.83919564 .00006276 00000-0 18284-3 0 9992 2 61781 97.2995 36.5132 0012333 315.5923 44.4331 15.35671634133878 JINJUSat 1B 1 63210U 25052A 26167.68917838 .00012762 00000-0 39628-3 0 9997 2 63210 97.4007 64.4436 0005487 91.7275 268.4596 15.33490601 70024 NUSHSAT 1 1 63211U 25052B 26167.66852669 .00016930 00000-0 48531-3 0 9990 2 63211 97.3984 64.9871 0005216 94.3037 265.8803 15.35954383 70061 TEVEL2-4 1 63213U 25052D 26167.66055269 .00015148 00000-0 45375-3 0 9996 2 63213 97.3905 64.0518 0004854 103.7970 256.3814 15.34595497 70033 TEVEL2-5 1 63214U 25052E 26167.68099411 .00014324 00000-0 43161-3 0 9992 2 63214 97.3904 64.0201 0004781 105.3171 254.8600 15.34422878 70030 TEVEL2-6 1 63215U 25052F 26167.69331356 .00014204 00000-0 42848-3 0 9999 2 63215 97.3910 64.0166 0004685 106.2697 253.9062 15.34387604 70033 TEVEL2-1 1 63217U 25052H 26167.65693069 .00014437 00000-0 44286-3 0 9995 2 63217 97.3879 63.6054 0004751 114.6585 245.5153 15.33853046 70016 TEVEL2-3 1 63218U 25052J 26167.52112230 .00014257 00000-0 43669-3 0 9992 2 63218 97.3885 63.4913 0004703 115.0626 245.1106 15.33904258 69995 TEVEL2-2 1 63219U 25052K 26167.65724747 .00014434 00000-0 44263-3 0 9997 2 63219 97.3883 63.6082 0004715 115.1533 245.0199 15.33861744 70012 TEVEL2-9 1 63237U 25052AD 26167.69930485 .00012673 00000-0 41358-3 0 9994 2 63237 97.3944 63.0262 0007764 132.1574 228.0328 15.31885267 69955 TEVEL2-7 1 63238U 25052AE 26167.67478499 .00012652 00000-0 41668-3 0 9996 2 63238 97.3945 62.9183 0007828 132.5601 227.6303 15.31589641 69947 TEVEL2-8 1 63239U 25052AF 26167.68303146 .00012386 00000-0 40821-3 0 9998 2 63239 97.3946 62.9032 0007849 133.0156 227.1744 15.31573973 69941 SPIRONE 1 66657U 25274H 26167.71899025 .00001361 00000-0 13436-3 0 9994 2 66657 97.7482 97.0171 0012695 22.9303 337.2481 14.93543086 30156 K-HERO 1 66660U 25274L 26167.72371610 .00001444 00000-0 14072-3 0 9993 2 66660 97.7487 97.1821 0014688 26.1853 334.0107 14.93960320 30163 SNUGLITE-III DURI 1 66661U 25274M 26167.71150347 .00001246 00000-0 12202-3 0 9998 2 66661 97.7487 97.1906 0015350 26.9691 333.2323 14.94000985 30167 SAKHACUBE-CHOLBON 1 67290U 25313AU 26167.70092354 .00007921 00000-0 32105-3 0 9993 2 67290 97.3933 242.7415 0008884 7.1471 352.9891 15.24881376 25901 RS95S (QMR-KWT-2) 1 67291U 25313AV 26167.68963839 .00011289 00000-0 43748-3 0 9993 2 67291 97.3932 242.9048 0008273 5.1793 354.9530 15.26282577 25915 Ten-Koh2 1 68261U 25241B 26166.70419506 .00005304 00000-0 23027-3 0 9999 2 68261 51.6697 326.6857 0006067 137.6687 222.4761 15.23889978 14686 JACK-002 1 68417U 26067B 26167.63458326 .00005644 00000-0 26992-3 0 9996 2 68417 97.4571 126.2320 0000242 9.1449 350.9790 15.19388001 11867 DISCO 2 1 68431U 26067R 26167.85325242 .00006771 00000-0 32607-3 0 9998 2 68431 97.4603 126.4365 0002841 44.7727 315.3736 15.19068757 11892 HADES-SA (SpinnyONE) 1 68446U 26067AG 26167.62896507 .00015172 00000-0 72564-3 0 9997 2 68446 97.4411 125.9339 0009435 83.3847 276.8461 15.19043068 11847 PARUS-6U1 1 68456U 26067AS 26167.85874757 .00004499 00000-0 22760-3 0 9999 2 68456 97.4556 126.2272 0007493 72.7678 287.4375 15.17513771 11881 SAL-E 1 68458U 26067AU 26167.85423580 .00006039 00000-0 30219-3 0 9995 2 68458 97.4480 126.1591 0007935 80.0139 280.1989 15.17751005 11882 FSI-SAT 2 1 68792U 26088A 26167.68810654 .00003959 00000-0 26897-3 0 9997 2 68792 97.5074 316.9594 0015806 108.2988 251.9960 15.06834383 8213 OrigamiSat 2 1 68795U 26088D 26167.36631624 .00010644 00000-0 67990-3 0 9991 2 68795 97.5070 316.7792 0016049 83.9310 276.3747 15.08720741 8171 ARICA 2 1 68796U 26088E 26167.36541633 .00004285 00000-0 27847-3 0 9993 2 68796 97.5059 316.7688 0016954 82.7955 277.5201 15.08422218 8176 WASEDA-SAT-ZERO-II 1 68797U 26088F 26167.36124945 .00005707 00000-0 36739-3 0 9997 2 68797 97.5059 316.7732 0016745 82.7707 277.5424 15.08635940 8175 MANGARO-II-Piscus 1 68798U 26088G 26167.68338221 .00003424 00000-0 22082-3 0 9997 2 68798 97.5072 317.1171 0020570 84.0792 276.2780 15.08783908 8228 IO-86 1 40931U 25360.30710720 .00000000 00000-0 12800-3 0 00 2 40931 6.0006 332.5373 0012733 338.8432 8.1437 14.79075515 01 LILIUM-4 1 71922C 26067AC 26089.50133053 -.00014632 00000 0 -74472-3 0 04 2 71922 97.4497 49.1617 0004341 5.9603 355.7042 15.16896692 16